sat.trackr.live / text

‹ back to catalog

UNKNOWN

NORAD 87214

UNKNOWN UNKNOWN UNKNOWN

§ Identity

Operator
Country
Launch date
Launch site
Launch vehicle
Mass (kg)
RCS (m²)

External: N2YO · Heavens-Above

§ Orbital elements

Epoch: 2026-05-24T00:18:51.618816Z

Period
104.01 min
Inclination
100.3243°
Eccentricity
0.0069344
Mean motion
13.84496287 rev/d
Perigee alt
897.2 km
Apogee alt
998.8 km
Semi-major
7,326.1 km
B*
5.9719e-4
RAAN
163.6712°
Arg perigee
194.7106°
Mean anomaly
165.2028°
Rev number
62,269

§ Raw data

UNKNOWN1 87214U          26144.01309744  .00000630  00000+0  59719-3 0  99992 87214 100.3243 163.6712 0069344 194.7106 165.2028 13.84496287622698

JSON: /api/v1/satellites/87214 · /tle

For live sub-satellite position, see the globe view (requires WebGL).

§ Visibility from observer

Set your observer location to see the next 7 days of passes ≥ 10°. The values pass through the URL so the page stays shareable.

No JS? Fill the form by hand. The geolocation button needs JavaScript.